,,,PA_Meas_PMT16A,,PR_Meas_QMR101_102,,RH_Meas_QMH101,,SR_Meas_QMS101,,TA_Meas_QMH101,,GenWind,,GenWind,
date,time,status,PA,status,PR,status,RH,status,SR,status,TA,status,DirAvg,status,SpdAvg,
2009-10-22, 00:00:04,VALID,1001.08,VALID,0,VALID,89.1903,VALID,0,VALID,23.3695,VALID,81,VALID,0.687109,
2009-10-22, 00:01:04,VALID,1001.06,VALID,0,VALID,89.1979,VALID,0,VALID,23.311,VALID,81,VALID,0.483203,
2009-10-22, 00:02:04,VALID,1001.05,VALID,0,VALID,89.4649,VALID,0,VALID,23.2719,VALID,81,VALID,0.513281,
2009-10-22, 00:03:04,VALID,1001.06,VALID,0,VALID,89.6023,VALID,0,VALID,23.2347,VALID,81,VALID,0.418359,
2009-10-22, 00:04:04,VALID,1001.01,VALID,0,VALID,89.7549,VALID,0,VALID,23.1549,VALID,81,VALID,0.452734,
2009-10-22, 00:05:04,VALID,1001.01,VALID,0,VALID,89.9914,VALID,0,VALID,23.1159,VALID,81,VALID,0.473437,
2009-10-22, 00:06:04,VALID,1000.98,VALID,0,VALID,90.205,VALID,0,VALID,23.0786,VALID,81,VALID,0.533984,
2009-10-22, 00:07:04,VALID,1000.99,VALID,0,VALID,90.4797,VALID,0,VALID,23.0183,VALID,81,VALID,0.799609,
2009-10-22, 00:08:04,VALID,1000.94,VALID,0,VALID,90.7314,VALID,0,VALID,22.9988,VALID,81,VALID,0.919922,
2009-10-22, 00:09:04,VALID,1000.94,VALID,0,VALID,91.0519,VALID,0,VALID,23.0183,VALID,81,VALID,0.897656,
2009-10-22, 00:10:04,VALID,1000.93,VALID,0,VALID,91.0443,VALID,0,VALID,23.0378,VALID,81,VALID,0.910937,
2009-10-22, 00:11:04,VALID,1000.92,VALID,0,VALID,90.6704,VALID,0,VALID,23.0786,VALID,81,VALID,0.877734,
2009-10-22, 00:12:04,VALID,1000.93,VALID,0,VALID,90.3423,VALID,0,VALID,23.0769,VALID,81,VALID,0.805469,
2009-10-22, 00:13:04,VALID,1000.94,VALID,0,VALID,90.3576,VALID,0,VALID,23.1159,VALID,81,VALID,0.482031,
2009-10-22, 00:14:04,VALID,1000.9,VALID,0,VALID,90.06,VALID,0,VALID,23.1549,VALID,81,VALID,0.5125,
2009-10-22, 00:15:04,VALID,1000.92,VALID,0,VALID,89.8006,VALID,0,VALID,23.1939,VALID,81,VALID,0.344141,
2009-10-22, 00:16:04,VALID,1000.91,VALID,0,VALID,89.5946,VALID,0,VALID,23.2134,VALID,81,VALID,0.383594,
2009-10-22, 00:17:04,VALID,1000.89,VALID,0,VALID,89.3581,VALID,0,VALID,23.2134,VALID,81,VALID,0.446094,
2009-10-22, 00:18:04,VALID,1000.9,VALID,0,VALID,89.5489,VALID,0,VALID,23.2329,VALID,51,VALID,0.738281,
2009-10-22, 00:19:04,VALID,1000.9,VALID,0,VALID,89.7854,VALID,0,VALID,23.2117,VALID,41,VALID,0.589844,
2009-10-22, 00:20:04,VALID,1000.96,VALID,0,VALID,89.648,VALID,0,VALID,23.1939,VALID,41,VALID,0.539453,
2009-10-22, 00:21:04,VALID,1000.95,VALID,0,VALID,89.8006,VALID,0,VALID,23.1159,VALID,41,VALID,0.535156,
2009-10-22, 00:22:04,VALID,1000.94,VALID,0,VALID,90.1592,VALID,0,VALID,23.0981,VALID,41,VALID,0.416797,
2009-10-22, 00:23:04,VALID,1000.95,VALID,0,VALID,90.411,VALID,0,VALID,23.0183,VALID,41,VALID,0.451562,
2009-10-22, 00:24:04,VALID,1000.97,VALID,0,VALID,90.5483,VALID,0,VALID,22.9793,VALID,41,VALID,0.405859,
2009-10-22, 00:25:04,VALID,1001,VALID,0,VALID,90.8688,VALID,0,VALID,22.9403,VALID,41,VALID,0.454688,
2009-10-22, 00:26:04,VALID,1000.98,VALID,0,VALID,91.0977,VALID,0,VALID,22.9013,VALID,41,VALID,0.535156,
2009-10-22, 00:27:04,VALID,1000.98,VALID,0,VALID,91.235,VALID,0,VALID,22.8818,VALID,41,VALID,0.455859,
2009-10-22, 00:28:04,VALID,1000.98,VALID,0,VALID,91.3876,VALID,0,VALID,22.8427,VALID,41,VALID,0.426562,
2009-10-22, 00:29:04,VALID,1000.97,VALID,0,VALID,91.3494,VALID,0,VALID,22.8037,VALID,41,VALID,0.376953,
2009-10-22, 00:30:04,VALID,1000.97,VALID,0,VALID,91.4563,VALID,0,VALID,22.7842,VALID,41,VALID,0.234375,
2009-10-22, 00:31:04,VALID,1000.95,VALID,0,VALID,91.5554,VALID,0,VALID,22.7452,VALID,41,VALID,0.160938,
2009-10-22, 00:32:04,VALID,1000.92,VALID,0,VALID,91.792,VALID,0,VALID,22.7664,VALID,41,VALID,0.177734,
2009-10-22, 00:33:04,VALID,1000.9,VALID,0,VALID,91.8759,VALID,0,VALID,22.7452,VALID,41,VALID,0.0128906,
2009-10-22, 00:34:04,VALID,1000.86,VALID,0,VALID,91.9522,VALID,0,VALID,22.7469,VALID,41,VALID,0,
2009-10-22, 00:35:04,VALID,1000.85,VALID,0,VALID,91.9217,VALID,0,VALID,22.7469,VALID,41,VALID,0,
2009-10-22, 00:36:04,VALID,1000.82,VALID,0,VALID,91.9445,VALID,0,VALID,22.6867,VALID,41,VALID,0,
2009-10-22, 00:37:04,VALID,1000.84,VALID,0,VALID,92.1277,VALID,0,VALID,22.7274,VALID,41,VALID,0,
2009-10-22, 00:38:05,VALID,1000.78,VALID,0,VALID,92.3337,VALID,0,VALID,22.7257,VALID,41,VALID,0.295312,
2009-10-22, 00:39:05,VALID,1000.75,VALID,0,VALID,92.4557,VALID,0,VALID,22.7452,VALID,41,VALID,0.585156,
2009-10-22, 00:40:05,VALID,1000.77,VALID,0,VALID,92.3947,VALID,0,VALID,22.7647,VALID,41,VALID,0.751953,
2009-10-22, 00:41:05,VALID,1000.7,VALID,0,VALID,92.2879,VALID,0,VALID,22.7647,VALID,41,VALID,0.825781,
2009-10-22, 00:42:05,VALID,1000.68,VALID,0,VALID,92.0514,VALID,0,VALID,22.7257,VALID,50,VALID,0.936328,
2009-10-22, 00:43:05,VALID,1000.67,VALID,0,VALID,91.9903,VALID,0,VALID,22.7062,VALID,57,VALID,0.949609,
2009-10-22, 00:44:05,VALID,1000.62,VALID,0,VALID,92.0361,VALID,0,VALID,22.6867,VALID,57,VALID,0.755859,
2009-10-22, 00:45:05,VALID,1000.61,VALID,0,VALID,91.998,VALID,0,VALID,22.6884,VALID,57,VALID,0.652734,
2009-10-22, 00:46:05,VALID,1000.6,VALID,0,VALID,91.9903,VALID,0,VALID,22.6477,VALID,57,VALID,0.536328,
2009-10-22, 00:47:05,VALID,1000.58,VALID,0,VALID,91.9674,VALID,0,VALID,22.6494,VALID,57,VALID,0.464844,
2009-10-22, 00:48:05,VALID,1000.56,VALID,0,VALID,91.9598,VALID,0,VALID,22.5892,VALID,57,VALID,0.496875,
2009-10-22, 00:49:05,VALID,1000.53,VALID,0,VALID,92.0895,VALID,0,VALID,22.5909,VALID,56,VALID,0.542969,
2009-10-22, 00:50:05,VALID,1000.52,VALID,0,VALID,92.265,VALID,0,VALID,22.5909,VALID,56,VALID,0.537891,
2009-10-22, 00:51:05,VALID,1000.5,VALID,0,VALID,92.4939,VALID,0,VALID,22.6104,VALID,56,VALID,0.4,
2009-10-22, 00:52:05,VALID,1000.44,VALID,0,VALID,92.3337,VALID,0,VALID,22.5696,VALID,56,VALID,0.294141,
2009-10-22, 00:53:05,VALID,1000.44,VALID,0,VALID,92.265,VALID,0,VALID,22.5306,VALID,56,VALID,0.195703,
2009-10-22, 00:54:05,VALID,1000.41,VALID,0,VALID,92.3947,VALID,0,VALID,22.5323,VALID,56,VALID,0.154297,
2009-10-22, 00:55:05,VALID,1000.41,VALID,0,VALID,92.471,VALID,0,VALID,22.5323,VALID,56,VALID,0.0496094,
2009-10-22, 00:56:05,VALID,1000.42,VALID,0,VALID,92.6541,VALID,0,VALID,22.5323,VALID,56,VALID,0,
2009-10-22, 00:57:05,VALID,1000.39,VALID,0,VALID,92.7762,VALID,0,VALID,22.5714,VALID,56,VALID,0,
2009-10-22, 00:58:05,VALID,1000.39,VALID,0,VALID,92.7838,VALID,0,VALID,22.5714,VALID,56,VALID,0.112109,
2009-10-22, 00:59:05,VALID,1000.38,VALID,0,VALID,92.8525,VALID,0,VALID,22.5892,VALID,56,VALID,0.31875,
2009-10-22, 01:00:05,VALID,1000.39,VALID,0,VALID,92.9211,VALID,0,VALID,22.6282,VALID,80,VALID,0.576953,
2009-10-22, 01:01:05,VALID,1000.36,VALID,0,VALID,93.028,VALID,0,VALID,22.6867,VALID,128,VALID,0.776172,
2009-10-22, 01:02:05,VALID,1000.36,VALID,0,VALID,92.9211,VALID,0,VALID,22.7045,VALID,163,VALID,1.2043,
2009-10-22, 01:03:05,VALID,1000.35,VALID,0,VALID,92.7304,VALID,0,VALID,22.8037,VALID,161,VALID,1.32422,
2009-10-22, 01:04:05,VALID,1000.31,VALID,0,VALID,92.3337,VALID,0,VALID,22.9013,VALID,170,VALID,1.20664,
2009-10-22, 01:05:05,VALID,1000.35,VALID,0,VALID,91.853,VALID,0,VALID,22.9793,VALID,166,VALID,1.16836,
2009-10-22, 01:06:05,VALID,1000.32,VALID,0,VALID,91.3037,VALID,0,VALID,23.0166,VALID,172,VALID,1.01289,
2009-10-22, 01:07:05,VALID,1000.29,VALID,0,VALID,90.7391,VALID,0,VALID,23.0964,VALID,171,VALID,1.11914,
2009-10-22, 01:08:05,VALID,1000.26,VALID,0,VALID,90.0524,VALID,0,VALID,23.1549,VALID,161,VALID,1.27773,
2009-10-22, 01:09:05,VALID,1000.26,VALID,0,VALID,89.4115,VALID,0,VALID,23.2329,VALID,167,VALID,1.30352,
2009-10-22, 01:10:05,VALID,1000.23,VALID,0,VALID,88.3892,VALID,0,VALID,23.311,VALID,169,VALID,1.45039,
2009-10-22, 01:11:05,VALID,1000.19,VALID,0,VALID,87.6643,VALID,0.112286,VALID,23.3695,VALID,182,VALID,1.02617,
2009-10-22, 01:12:05,VALID,1000.22,VALID,0,VALID,87.4507,VALID,0,VALID,23.4671,VALID,191,VALID,0.882422,
2009-10-22, 01:13:05,VALID,1000.2,VALID,0,VALID,87.0769,VALID,0,VALID,23.5061,VALID,180,VALID,1.00469,
2009-10-22, 01:14:05,VALID,1000.19,VALID,0,VALID,86.7564,VALID,0,VALID,23.5451,VALID,179,VALID,1.03203,
2009-10-22, 01:15:05,VALID,1000.18,VALID,0,VALID,86.1537,VALID,0,VALID,23.6232,VALID,173,VALID,1.22773,
2009-10-22, 01:16:05,VALID,1000.17,VALID,0,VALID,85.6425,VALID,0,VALID,23.742,VALID,185,VALID,1.47383,
2009-10-22, 01:17:05,VALID,1000.13,VALID,0,VALID,84.9558,VALID,0,VALID,23.8396,VALID,180,VALID,1.63711,
2009-10-22, 01:18:05,VALID,1000.15,VALID,0,VALID,84.4599,VALID,0,VALID,23.8768,VALID,159,VALID,1.22734,
2009-10-22, 01:19:05,VALID,1000.13,VALID,0,VALID,84.3226,VALID,0,VALID,23.8982,VALID,149,VALID,1.31367,
2009-10-22, 01:20:05,VALID,1000.11,VALID,0,VALID,84.3531,VALID,0,VALID,23.8573,VALID,140,VALID,1.16562,
2009-10-22, 01:21:05,VALID,1000.13,VALID,0,VALID,84.4599,VALID,0,VALID,23.8396,VALID,135,VALID,1.02539,
2009-10-22, 01:22:05,VALID,1000.11,VALID,0,VALID,84.5133,VALID,0,VALID,23.7616,VALID,135,VALID,0.742188,
2009-10-22, 01:23:05,VALID,1000.13,VALID,0,VALID,84.7346,VALID,0,VALID,23.6622,VALID,133,VALID,0.741797,
2009-10-22, 01:24:05,VALID,1000.14,VALID,0,VALID,85.0245,VALID,0,VALID,23.5859,VALID,133,VALID,0.555859,
2009-10-22, 01:25:05,VALID,1000.13,VALID,0,VALID,85.322,VALID,0,VALID,23.5274,VALID,132,VALID,0.347656,
2009-10-22, 01:26:05,VALID,1000.14,VALID,0,VALID,85.5433,VALID,0,VALID,23.428,VALID,132,VALID,0.0410156,
2009-10-22, 01:27:05,VALID,1000.1,VALID,0,VALID,85.8256,VALID,0,VALID,23.3695,VALID,132,VALID,0.00507812,
2009-10-22, 01:28:05,VALID,1000.08,VALID,0,VALID,86.1155,VALID,0,VALID,23.3127,VALID,132,VALID,0,
2009-10-22, 01:29:05,VALID,1000.08,VALID,0,VALID,86.4054,VALID,0,VALID,23.2737,VALID,132,VALID,0.0828125,
2009-10-22, 01:30:05,VALID,1000.06,VALID,0,VALID,86.6191,VALID,0,VALID,23.2134,VALID,132,VALID,0.00507812,
2009-10-22, 01:31:05,VALID,1000.08,VALID,0,VALID,87.0616,VALID,0,VALID,23.1744,VALID,132,VALID,0,
2009-10-22, 01:32:05,VALID,1000.07,VALID,0,VALID,87.3973,VALID,0,VALID,23.1549,VALID,132,VALID,0.109766,
2009-10-22, 01:33:05,VALID,1000.1,VALID,0,VALID,87.672,VALID,0,VALID,23.1354,VALID,132,VALID,0,
2009-10-22, 01:34:05,VALID,1000.08,VALID,0,VALID,87.9619,VALID,0,VALID,23.0964,VALID,132,VALID,0,
2009-10-22, 01:35:05,VALID,1000.11,VALID,0,VALID,88.1526,VALID,0,VALID,23.0769,VALID,132,VALID,0,
2009-10-22, 01:36:05,VALID,1000.1,VALID,0,VALID,88.2671,VALID,0,VALID,23.0591,VALID,132,VALID,0,
2009-10-22, 01:37:05,VALID,1000.09,VALID,0,VALID,88.496,VALID,0,VALID,22.9988,VALID,132,VALID,0,
2009-10-22, 01:38:05,VALID,1000.1,VALID,0,VALID,88.7172,VALID,0,VALID,22.9988,VALID,132,VALID,0,
2009-10-22, 01:39:05,VALID,1000.08,VALID,0,VALID,88.9156,VALID,0,VALID,23.0183,VALID,132,VALID,0.145313,
2009-10-22, 01:40:05,VALID,1000.05,VALID,0,VALID,88.908,VALID,0,VALID,23.0378,VALID,132,VALID,0,
2009-10-22, 01:41:05,VALID,1000.01,VALID,0,VALID,88.8164,VALID,0,VALID,23.0396,VALID,132,VALID,0,
2009-10-22, 01:42:05,VALID,1000.01,VALID,0,VALID,89.0071,VALID,0,VALID,23.0201,VALID,132,VALID,0.160156,
2009-10-22, 01:43:05,VALID,1000,VALID,0,VALID,88.9995,VALID,0,VALID,23.0201,VALID,132,VALID,0.208984,
2009-10-22, 01:44:05,VALID,1000.01,VALID,0,VALID,88.8546,VALID,0,VALID,23.0183,VALID,132,VALID,0.246484,
2009-10-22, 01:45:05,VALID,999.964,VALID,0,VALID,88.7325,VALID,0,VALID,22.9988,VALID,132,VALID,0.178906,
2009-10-22, 01:46:05,VALID,999.945,VALID,0,VALID,88.6714,VALID,0,VALID,23.0183,VALID,132,VALID,0.144141,
2009-10-22, 01:47:05,VALID,999.946,VALID,0,VALID,88.5723,VALID,0,VALID,22.9988,VALID,132,VALID,0.180859,
2009-10-22, 01:48:05,VALID,999.924,VALID,0,VALID,88.5265,VALID,0,VALID,22.9598,VALID,132,VALID,0.11875,
2009-10-22, 01:49:05,VALID,999.913,VALID,0,VALID,88.6562,VALID,0,VALID,22.9615,VALID,132,VALID,0,
2009-10-22, 01:50:05,VALID,999.908,VALID,0,VALID,88.702,VALID,0,VALID,22.9013,VALID,132,VALID,0,
2009-10-22, 01:51:05,VALID,999.879,VALID,0,VALID,88.8317,VALID,0,VALID,22.8818,VALID,132,VALID,0,
2009-10-22, 01:52:05,VALID,999.89,VALID,0,VALID,89.0377,VALID,0,VALID,22.9013,VALID,132,VALID,0,
2009-10-22, 01:53:05,VALID,999.875,VALID,0,VALID,89.0834,VALID,0,VALID,22.9013,VALID,132,VALID,0,
2009-10-22, 01:54:05,VALID,999.892,VALID,0,VALID,88.9309,VALID,0,VALID,22.9013,VALID,132,VALID,0,
2009-10-22, 01:55:05,VALID,999.924,VALID,0,VALID,88.9309,VALID,0,VALID,22.8623,VALID,132,VALID,0,
2009-10-22, 01:56:05,VALID,999.901,VALID,0,VALID,89.0148,VALID,0,VALID,22.8427,VALID,132,VALID,0,
2009-10-22, 01:57:05,VALID,999.911,VALID,0,VALID,89.1979,VALID,0,VALID,22.8427,VALID,132,VALID,0,
2009-10-22, 01:58:05,VALID,999.911,VALID,0,VALID,89.2818,VALID,0,VALID,22.8427,VALID,132,VALID,0.266016,
2009-10-22, 01:59:05,VALID,999.862,VALID,0,VALID,89.2742,VALID,0,VALID,22.8427,VALID,132,VALID,0.371484,
2009-10-22, 02:00:05,VALID,999.879,VALID,0,VALID,89.3428,VALID,0,VALID,22.8232,VALID,132,VALID,0.183594,
2009-10-22, 02:01:05,VALID,999.859,VALID,0,VALID,89.4268,VALID,0,VALID,22.8232,VALID,132,VALID,0.210938,
2009-10-22, 02:02:05,VALID,999.825,VALID,0,VALID,89.5107,VALID,0,VALID,22.8232,VALID,132,VALID,0.178125,
2009-10-22, 02:03:05,VALID,999.825,VALID,0,VALID,89.4649,VALID,0,VALID,22.8037,VALID,132,VALID,0.180078,
2009-10-22, 02:04:05,VALID,999.808,VALID,0,VALID,89.3886,VALID,0,VALID,22.7647,VALID,132,VALID,0.0570313,
2009-10-22, 02:05:05,VALID,999.783,VALID,0,VALID,89.6099,VALID,0,VALID,22.7452,VALID,132,VALID,0,
2009-10-22, 02:06:05,VALID,999.777,VALID,0,VALID,89.8846,VALID,0,VALID,22.7062,VALID,132,VALID,0,
2009-10-22, 02:07:05,VALID,999.764,VALID,0,VALID,89.9685,VALID,0,VALID,22.7062,VALID,132,VALID,0,
2009-10-22, 02:08:05,VALID,999.728,VALID,0,VALID,89.6175,VALID,0,VALID,22.6494,VALID,132,VALID,0.184375,
2009-10-22, 02:09:05,VALID,999.774,VALID,0,VALID,90.0982,VALID,0,VALID,22.6087,VALID,132,VALID,0.144922,
2009-10-22, 02:10:05,VALID,999.745,VALID,0,VALID,90.4415,VALID,0,VALID,22.5892,VALID,132,VALID,0.250391,
2009-10-22, 02:11:05,VALID,999.767,VALID,0,VALID,90.3194,VALID,0,VALID,22.6104,VALID,132,VALID,0.261328,
2009-10-22, 02:12:05,VALID,999.762,VALID,0,VALID,89.8998,VALID,0,VALID,22.6104,VALID,132,VALID,0.425781,
2009-10-22, 02:13:05,VALID,999.793,VALID,0,VALID,89.381,VALID,0,VALID,22.5714,VALID,132,VALID,0.330078,
2009-10-22, 02:14:05,VALID,999.789,VALID,0,VALID,89.4497,VALID,0,VALID,22.5519,VALID,132,VALID,0.418359,
2009-10-22, 02:15:05,VALID,999.758,VALID,0,VALID,89.4191,VALID,0,VALID,22.4916,VALID,132,VALID,0.294141,
2009-10-22, 02:16:05,VALID,999.749,VALID,0,VALID,89.7243,VALID,0,VALID,22.4916,VALID,54,VALID,0.646875,
2009-10-22, 02:17:05,VALID,999.77,VALID,0,VALID,89.6633,VALID,0,VALID,22.4916,VALID,55,VALID,0.670313,
2009-10-22, 02:18:05,VALID,999.762,VALID,0,VALID,89.5412,VALID,0,VALID,22.4916,VALID,64,VALID,1.09648,
2009-10-22, 02:19:05,VALID,999.765,VALID,0,VALID,89.6099,VALID,0,VALID,22.5111,VALID,61,VALID,1.20234,
2009-10-22, 02:20:05,VALID,999.775,VALID,0,VALID,89.4344,VALID,0,VALID,22.5306,VALID,54,VALID,1.26758,
2009-10-22, 02:21:05,VALID,999.781,VALID,0,VALID,89.526,VALID,0,VALID,22.5306,VALID,48,VALID,1.00898,
2009-10-22, 02:22:05,VALID,999.794,VALID,0,VALID,89.6023,VALID,0,VALID,22.5128,VALID,47,VALID,0.894922,
2009-10-22, 02:23:05,VALID,999.762,VALID,0,VALID,89.8998,VALID,0,VALID,22.4526,VALID,45,VALID,0.790625,
2009-10-22, 02:24:05,VALID,999.766,VALID,0,VALID,90.35,VALID,0,VALID,22.4331,VALID,45,VALID,0.792578,
2009-10-22, 02:25:05,VALID,999.728,VALID,0,VALID,90.6475,VALID,0,VALID,22.3746,VALID,42,VALID,0.751953,
2009-10-22, 02:26:05,VALID,999.709,VALID,0,VALID,90.8993,VALID,0,VALID,22.3746,VALID,40,VALID,0.672266,
2009-10-22, 02:27:05,VALID,999.703,VALID,0,VALID,90.8306,VALID,0,VALID,22.3356,VALID,40,VALID,0.635156,
2009-10-22, 02:28:05,VALID,999.701,VALID,0,VALID,91.09,VALID,0,VALID,22.3178,VALID,40,VALID,0.739062,
2009-10-22, 02:29:05,VALID,999.676,VALID,0,VALID,91.441,VALID,0,VALID,22.2966,VALID,40,VALID,0.833203,
2009-10-22, 02:30:05,VALID,999.689,VALID,0,VALID,91.4791,VALID,0,VALID,22.3178,VALID,40,VALID,0.714453,
2009-10-22, 02:31:05,VALID,999.68,VALID,0,VALID,91.1206,VALID,0,VALID,22.2592,VALID,40,VALID,0.705078,
2009-10-22, 02:32:05,VALID,999.741,VALID,0,VALID,91.4791,VALID,0,VALID,22.2186,VALID,40,VALID,0.586328,
2009-10-22, 02:33:05,VALID,999.718,VALID,0,VALID,91.3494,VALID,0,VALID,22.2007,VALID,40,VALID,0.227734,
2009-10-22, 02:34:05,VALID,999.674,VALID,0,VALID,91.38,VALID,0,VALID,22.2007,VALID,40,VALID,0.530469,
2009-10-22, 02:35:05,VALID,999.668,VALID,0,VALID,91.6928,VALID,0,VALID,22.1812,VALID,40,VALID,0.490234,
2009-10-22, 02:36:05,VALID,999.64,VALID,0,VALID,91.5783,VALID,0,VALID,22.16,VALID,40,VALID,0.327344,
2009-10-22, 02:37:05,VALID,999.633,VALID,0,VALID,91.586,VALID,0,VALID,22.1405,VALID,40,VALID,0.338281,
2009-10-22, 02:38:05,VALID,999.605,VALID,0,VALID,91.6012,VALID,0,VALID,22.1405,VALID,40,VALID,0.386719,
2009-10-22, 02:39:05,VALID,999.552,VALID,0,VALID,91.6165,VALID,0,VALID,22.121,VALID,40,VALID,0.365234,
2009-10-22, 02:40:05,VALID,999.583,VALID,0,VALID,91.7004,VALID,0,VALID,22.121,VALID,40,VALID,0.352344,
2009-10-22, 02:41:05,VALID,999.585,VALID,0,VALID,91.8148,VALID,0,VALID,22.1405,VALID,40,VALID,0.243359,
2009-10-22, 02:42:05,VALID,999.566,VALID,0,VALID,91.8377,VALID,0,VALID,22.16,VALID,40,VALID,0.225,
2009-10-22, 02:43:05,VALID,999.548,VALID,0,VALID,91.8683,VALID,0,VALID,22.1795,VALID,40,VALID,0.155078,
2009-10-22, 02:44:05,VALID,999.567,VALID,0,VALID,91.8454,VALID,0,VALID,22.2202,VALID,40,VALID,0.163281,
2009-10-22, 02:45:05,VALID,999.516,VALID,0,VALID,91.9217,VALID,0,VALID,22.2186,VALID,40,VALID,0.00117188,
2009-10-22, 02:46:05,VALID,999.511,VALID,0,VALID,91.914,VALID,0,VALID,22.2186,VALID,40,VALID,0,
2009-10-22, 02:47:05,VALID,999.492,VALID,0,VALID,91.9522,VALID,0,VALID,22.2186,VALID,40,VALID,0,
2009-10-22, 02:48:05,VALID,999.508,VALID,0,VALID,91.9903,VALID,0,VALID,22.2186,VALID,40,VALID,0,
2009-10-22, 02:49:05,VALID,999.51,VALID,0,VALID,91.9674,VALID,0,VALID,22.2381,VALID,40,VALID,0,
2009-10-22, 02:50:05,VALID,999.507,VALID,0,VALID,91.9674,VALID,0,VALID,22.2186,VALID,40,VALID,0,
2009-10-22, 02:51:05,VALID,999.519,VALID,0,VALID,91.9369,VALID,0,VALID,22.2186,VALID,40,VALID,0,
2009-10-22, 02:52:05,VALID,999.559,VALID,0,VALID,91.9217,VALID,0,VALID,22.2186,VALID,40,VALID,0,
2009-10-22, 02:53:05,VALID,999.578,VALID,0,VALID,91.9064,VALID,0,VALID,22.1795,VALID,40,VALID,0,
2009-10-22, 02:54:05,VALID,999.591,VALID,0,VALID,91.9293,VALID,0,VALID,22.1795,VALID,40,VALID,0,
2009-10-22, 02:55:05,VALID,999.615,VALID,0,VALID,91.998,VALID,0,VALID,22.1795,VALID,40,VALID,0,
2009-10-22, 02:56:05,VALID,999.617,VALID,0,VALID,92.1124,VALID,0,VALID,22.2007,VALID,40,VALID,0,
2009-10-22, 02:57:05,VALID,999.689,VALID,0,VALID,92.1582,VALID,0,VALID,22.2397,VALID,40,VALID,0,
2009-10-22, 02:58:05,VALID,999.696,VALID,0,VALID,92.1582,VALID,0,VALID,22.2576,VALID,40,VALID,0,
2009-10-22, 02:59:05,VALID,999.717,VALID,0,VALID,92.059,VALID,0,VALID,22.2771,VALID,40,VALID,0.0917969,
2009-10-22, 03:00:05,VALID,999.711,VALID,0,VALID,92.0132,VALID,0,VALID,22.2966,VALID,40,VALID,0.13125,
2009-10-22, 03:01:05,VALID,999.77,VALID,0,VALID,92.0285,VALID,0,VALID,22.3161,VALID,40,VALID,0.103516,
2009-10-22, 03:02:05,VALID,999.749,VALID,0,VALID,91.9903,VALID,0,VALID,22.3568,VALID,40,VALID,0.23125,
2009-10-22, 03:03:05,VALID,999.773,VALID,0,VALID,91.9598,VALID,0,VALID,22.3763,VALID,40,VALID,0.367188,
2009-10-22, 03:04:05,VALID,999.743,VALID,0,VALID,91.853,VALID,0,VALID,22.3941,VALID,40,VALID,0.571094,
2009-10-22, 03:05:05,VALID,999.742,VALID,0,VALID,91.1968,VALID,0,VALID,22.3356,VALID,14,VALID,0.794141,
2009-10-22, 03:06:05,VALID,999.736,VALID,0,VALID,91.3037,VALID,0,VALID,22.2966,VALID,14,VALID,0.753125,
2009-10-22, 03:07:05,VALID,999.712,VALID,0,VALID,91.6088,VALID,0,VALID,22.2576,VALID,14,VALID,0.607422,
2009-10-22, 03:08:05,VALID,999.718,VALID,0,VALID,91.6851,VALID,0,VALID,22.2592,VALID,13,VALID,0.466797,
2009-10-22, 03:09:05,VALID,999.694,VALID,0,VALID,91.2503,VALID,0,VALID,22.1812,VALID,13,VALID,0.341016,
2009-10-22, 03:10:05,VALID,999.651,VALID,0,VALID,91.3342,VALID,0,VALID,22.1015,VALID,13,VALID,0.442187,
2009-10-22, 03:11:05,VALID,999.643,VALID,0,VALID,91.6851,VALID,0,VALID,22.0837,VALID,13,VALID,0.443359,
2009-10-22, 03:12:05,VALID,999.654,VALID,0,VALID,91.8454,VALID,0,VALID,22.0625,VALID,13,VALID,0.411328,
2009-10-22, 03:13:05,VALID,999.639,VALID,0,VALID,92.1506,VALID,0,VALID,22.0625,VALID,13,VALID,0.395312,
2009-10-22, 03:14:05,VALID,999.675,VALID,0,VALID,92.0285,VALID,0,VALID,22.0235,VALID,13,VALID,0.357812,
2009-10-22, 03:15:05,VALID,999.687,VALID,0,VALID,91.9445,VALID,0,VALID,22.0057,VALID,13,VALID,0.320313,
2009-10-22, 03:16:05,VALID,999.677,VALID,0,VALID,91.9751,VALID,0,VALID,21.9455,VALID,13,VALID,0.278516,
2009-10-22, 03:17:05,VALID,999.717,VALID,0,VALID,92.0819,VALID,0,VALID,21.9277,VALID,13,VALID,0.216406,
2009-10-22, 03:18:05,VALID,999.721,VALID,0,VALID,92.4863,VALID,0,VALID,21.926,VALID,13,VALID,0.271094,
2009-10-22, 03:19:05,VALID,999.723,VALID,0,VALID,92.5854,VALID,0,VALID,21.9472,VALID,13,VALID,0.524219,
2009-10-22, 03:20:05,VALID,999.755,VALID,0,VALID,92.8677,VALID,0,VALID,22.0057,VALID,14,VALID,0.669922,
2009-10-22, 03:21:05,VALID,999.743,VALID,0,VALID,92.6617,VALID,0,VALID,21.9845,VALID,30,VALID,0.943359,
2009-10-22, 03:22:04,VALID,999.753,VALID,0,VALID,92.3031,VALID,0,VALID,21.9455,VALID,34,VALID,0.941797,
2009-10-22, 03:23:04,VALID,999.788,VALID,0,VALID,92.4252,VALID,0,VALID,21.926,VALID,38,VALID,0.933594,
2009-10-22, 03:24:04,VALID,999.775,VALID,0,VALID,92.6846,VALID,0,VALID,21.965,VALID,49,VALID,0.923828,
2009-10-22, 03:25:04,VALID,999.788,VALID,0,VALID,92.6388,VALID,0,VALID,21.9845,VALID,52,VALID,0.760156,
2009-10-22, 03:26:04,VALID,999.77,VALID,0,VALID,92.6312,VALID,0,VALID,22.004,VALID,52,VALID,0.507031,
2009-10-22, 03:27:04,VALID,999.777,VALID,0,VALID,92.6541,VALID,0,VALID,22.0642,VALID,53,VALID,0.600391,
2009-10-22, 03:28:04,VALID,999.773,VALID,0,VALID,92.5702,VALID,0,VALID,22.0625,VALID,54,VALID,0.697656,
2009-10-22, 03:29:04,VALID,999.757,VALID,0,VALID,92.5168,VALID,0,VALID,22.0625,VALID,55,VALID,0.539453,
2009-10-22, 03:30:04,VALID,999.743,VALID,0,VALID,92.3184,VALID,0,VALID,22.0837,VALID,56,VALID,0.519531,
2009-10-22, 03:31:04,VALID,999.757,VALID,0,VALID,92.2192,VALID,0,VALID,22.0235,VALID,56,VALID,0.441406,
2009-10-22, 03:32:04,VALID,999.742,VALID,0,VALID,92.12,VALID,0,VALID,22.004,VALID,56,VALID,0.232031,
2009-10-22, 03:33:04,VALID,999.712,VALID,0,VALID,92.0514,VALID,0,VALID,21.965,VALID,56,VALID,0.173438,
2009-10-22, 03:34:04,VALID,999.697,VALID,0,VALID,92.1048,VALID,0,VALID,21.9438,VALID,56,VALID,0.101953,
2009-10-22, 03:35:04,VALID,999.691,VALID,0,VALID,92.3566,VALID,0,VALID,21.9845,VALID,56,VALID,0.35625,
2009-10-22, 03:36:04,VALID,999.666,VALID,0,VALID,92.5397,VALID,0,VALID,21.9845,VALID,56,VALID,0.284766,
2009-10-22, 03:37:04,VALID,999.673,VALID,0,VALID,92.4863,VALID,0,VALID,22.004,VALID,56,VALID,0.239844,
2009-10-22, 03:38:04,VALID,999.689,VALID,0,VALID,92.41,VALID,0,VALID,21.9845,VALID,56,VALID,0.215234,
2009-10-22, 03:39:04,VALID,999.707,VALID,0,VALID,92.3566,VALID,0,VALID,22.0057,VALID,56,VALID,0,
2009-10-22, 03:40:04,VALID,999.737,VALID,0,VALID,92.4252,VALID,0,VALID,21.9845,VALID,56,VALID,0,
2009-10-22, 03:41:04,VALID,999.741,VALID,0,VALID,92.4863,VALID,0,VALID,21.9845,VALID,56,VALID,0.0015625,
2009-10-22, 03:42:04,VALID,999.741,VALID,0,VALID,92.5854,VALID,0,VALID,22.004,VALID,56,VALID,0.271484,
2009-10-22, 03:43:04,VALID,999.744,VALID,0,VALID,92.7228,VALID,0,VALID,22.043,VALID,56,VALID,0.403906,
2009-10-22, 03:44:04,VALID,999.734,VALID,0,VALID,92.8143,VALID,0,VALID,22.0625,VALID,56,VALID,0.505469,
2009-10-22, 03:45:04,VALID,999.747,VALID,0,VALID,92.8677,VALID,0,VALID,22.121,VALID,96,VALID,0.625391,
2009-10-22, 03:46:04,VALID,999.744,VALID,0,VALID,92.738,VALID,0,VALID,22.16,VALID,103,VALID,0.520312,
2009-10-22, 03:47:04,VALID,999.729,VALID,0,VALID,92.5778,VALID,0,VALID,22.1584,VALID,118,VALID,0.436719,
2009-10-22, 03:48:04,VALID,999.711,VALID,0,VALID,92.2116,VALID,0,VALID,22.1795,VALID,118,VALID,0.278906,